| time (UTC) | temp F | wind direction | speed MPH | gust MPH | rain 1hr in | rain 24hr in | rain mn in | humidity % | barometer mb |
| 20260905203105 | 54 | 200 | 2.0 | 6.0 | 0.00 | 0.43 | 0.28 | 88 | 1016.7 |
| 20260905203002 | 54 | 196 | 3.0 | 6.0 | 0.00 | 0.43 | 0.28 | 88 | 1016.6 |
| 20260905202501 | 54 | 199 | 3.0 | 7.0 | 0.00 | 0.43 | 0.28 | 88 | 1016.7 |
| 20260905202001 | 54 | 269 | 3.0 | 7.0 | 0.00 | 0.43 | 0.28 | 88 | 1016.7 |
| 20260905201611 | 54 | 199 | 3.0 | 7.0 | 0.00 | 0.43 | 0.28 | 88 | 1016.6 |
| 20260905201502 | 54 | 220 | 3.0 | 8.0 | 0.00 | 0.43 | 0.28 | 88 | 1016.6 |
| 20260905201100 | 54 | 186 | 2.0 | 12.0 | 0.00 | 0.43 | 0.28 | 88 | 1016.6 |
| 20260905201001 | 54 | 230 | 2.0 | 12.0 | 0.00 | 0.43 | 0.28 | 88 | 1016.6 |
| 20260905200501 | 54 | 213 | 3.0 | 9.0 | 0.00 | 0.43 | 0.28 | 88 | 1016.5 |
| 20260905200005 | 54 | 209 | 4.0 | 9.0 | 0.00 | 0.43 | 0.28 | 88 | 1016.5 |
| 20260905195501 | 54 | 230 | 4.0 | 7.0 | 0.00 | 0.43 | 0.28 | 88 | 1016.4 |
| 20260905195002 | 54 | 165 | 5.0 | 8.0 | 0.00 | 0.43 | 0.28 | 88 | 1016.4 |
| 20260905194502 | 54 | 195 | 3.0 | 9.0 | 0.00 | 0.43 | 0.28 | 88 | 1016.5 |
| 20260905194003 | 54 | 222 | 5.0 | 9.0 | 0.00 | 0.43 | 0.28 | 88 | 1016.4 |
| 20260905193502 | 54 | 213 | 3.0 | 11.0 | 0.00 | 0.43 | 0.28 | 88 | 1016.3 |
| 20260905193006 | 54 | 213 | 5.0 | 11.0 | 0.00 | 0.43 | 0.28 | 88 | 1016.3 |
| 20260905192504 | 54 | 176 | 4.0 | 8.0 | 0.00 | 0.43 | 0.28 | 88 | 1016.3 |
| 20260905192001 | 54 | 236 | 4.0 | 8.0 | 0.00 | 0.43 | 0.28 | 88 | 1016.3 |
| 20260905191503 | 54 | 244 | 4.0 | 9.0 | 0.00 | 0.43 | 0.28 | 88 | 1016.2 |
| 20260905191001 | 54 | 222 | 3.0 | 10.0 | 0.00 | 0.43 | 0.28 | 88 | 1016.2 |
| 20260905190502 | 54 | 223 | 4.0 | 10.0 | 0.00 | 0.43 | 0.28 | 88 | 1016.3 |
| 20260905190003 | 54 | 221 | 4.0 | 11.0 | 0.00 | 0.43 | 0.28 | 88 | 1016.2 |
| 20260905185601 | 54 | 220 | 6.0 | 11.0 | 0.00 | 0.43 | 0.28 | 88 | 1016.2 |
| 20260905185501 | 54 | 212 | 5.0 | 11.0 | 0.00 | 0.43 | 0.28 | 88 | 1016.2 |
| 20260905185102 | 54 | 261 | 5.0 | 9.0 | 0.00 | 0.43 | 0.28 | 88 | 1016.2 |
| 20260905185001 | 54 | 223 | 5.0 | 9.0 | 0.00 | 0.43 | 0.28 | 88 | 1016.1 |
| 20260905184502 | 54 | 207 | 4.0 | 9.0 | 0.00 | 0.43 | 0.28 | 88 | 1016.0 |
| 20260905184103 | 54 | 222 | 3.0 | 8.0 | 0.00 | 0.43 | 0.28 | 88 | 1016.0 |
| 20260905184004 | 54 | 220 | 3.0 | 8.0 | 0.00 | 0.43 | 0.28 | 88 | 1016.0 |
| 20260905183601 | 54 | 199 | 4.0 | 11.0 | 0.00 | 0.43 | 0.28 | 88 | 1016.0 |
| 20260905183501 | 54 | 215 | 4.0 | 11.0 | 0.00 | 0.43 | 0.28 | 88 | 1016.0 |
| 20260905183100 | 54 | 151 | 4.0 | 11.0 | 0.00 | 0.43 | 0.28 | 88 | 1016.0 |
| 20260905183001 | 54 | 280 | 5.0 | 11.0 | 0.00 | 0.43 | 0.28 | 88 | 1016.0 |
| 20260905182501 | 54 | 195 | 3.0 | 12.0 | 0.00 | 0.43 | 0.28 | 88 | 1016.0 |
| 20260905182101 | 54 | 205 | 5.0 | 12.0 | 0.00 | 0.43 | 0.28 | 88 | 1016.0 |
| 20260905182002 | 54 | 251 | 5.0 | 12.0 | 0.00 | 0.43 | 0.28 | 88 | 1016.0 |
| 20260905181502 | 54 | 155 | 3.0 | 8.0 | 0.00 | 0.43 | 0.28 | 88 | 1015.9 |
| 20260905181101 | 54 | 221 | 3.0 | 8.0 | 0.01 | 0.43 | 0.28 | 88 | 1015.9 |
| 20260905180601 | 54 | 217 | 3.0 | 8.0 | 0.02 | 0.43 | 0.28 | 88 | 1015.8 |
| 20260905180002 | 54 | 232 | 4.0 | 7.0 | 0.03 | 0.43 | 0.28 | 88 | 1015.7 |
| 20260905175600 | 55 | 165 | 3.0 | 7.0 | 0.04 | 0.43 | 0.28 | 89 | 1015.6 |
| 20260905175002 | 55 | 215 | 4.0 | 10.0 | 0.06 | 0.43 | 0.28 | 89 | 1015.5 |
| 20260905174502 | 55 | 221 | 5.0 | 10.0 | 0.09 | 0.43 | 0.28 | 89 | 1015.5 |
| 20260905174001 | 55 | 217 | 4.0 | 8.0 | 0.10 | 0.43 | 0.28 | 89 | 1015.4 |
| 20260905173501 | 55 | 200 | 3.0 | 7.0 | 0.13 | 0.43 | 0.28 | 88 | 1015.4 |
| 20260905173104 | 55 | 169 | 3.0 | 8.0 | 0.13 | 0.43 | 0.28 | 88 | 1015.3 |
| 20260905173004 | 55 | 222 | 3.0 | 8.0 | 0.13 | 0.43 | 0.28 | 88 | 1015.3 |
| 20260905172600 | 55 | 202 | 3.0 | 8.0 | 0.16 | 0.43 | 0.28 | 88 | 1015.3 |
| 20260905172502 | 55 | 209 | 3.0 | 8.0 | 0.16 | 0.43 | 0.28 | 88 | 1015.2 |
| 20260905172001 | 55 | 202 | 3.0 | 9.0 | 0.17 | 0.43 | 0.28 | 89 | 1015.1 |
| 20260905171500 | 55 | 225 | 2.0 | 6.0 | 0.18 | 0.43 | 0.28 | 89 | 1015.2 |
| 20260905171001 | 56 | 142 | 0.0 | 7.0 | 0.18 | 0.43 | 0.28 | 89 | 1015.1 |
| 20260905170501 | 56 | 216 | 1.0 | 9.0 | 0.19 | 0.41 | 0.27 | 88 | 1014.9 |
| 20260905170002 | 56 | 160 | 1.0 | 9.0 | 0.19 | 0.54 | 0.26 | 88 | 1015.0 |
| 20260905165502 | 56 | 219 | 3.0 | 11.0 | 0.19 | 0.53 | 0.24 | 88 | 1015.1 |
| 20260905165002 | 56 | 207 | 4.0 | 11.0 | 0.21 | 0.51 | 0.23 | 88 | 1015.1 |
| 20260905164601 | 56 | 213 | 2.0 | 12.0 | 0.20 | 0.50 | 0.21 | 88 | 1015.2 |
| 20260905164001 | 56 | 184 | 4.0 | 12.0 | 0.17 | 0.47 | 0.19 | 88 | 1015.3 |
| 20260905163500 | 56 | 232 | 4.0 | 11.0 | 0.15 | 0.45 | 0.17 | 88 | 1015.3 |
| 20260905163104 | 56 | 280 | 3.0 | 12.0 | 0.14 | 0.44 | 0.16 | 88 | 1015.3 |
| 20260905162503 | 56 | 227 | 2.0 | 7.0 | 0.12 | 0.42 | 0.13 | 87 | 1015.3 |
| 20260905162001 | 57 | 225 | 3.0 | 11.0 | 0.10 | 0.40 | 0.12 | 87 | 1015.1 |
| 20260905161600 | 57 | 243 | 4.0 | 11.0 | 0.09 | 0.39 | 0.11 | 87 | 1014.9 |
| 20260905161501 | 57 | 223 | 5.0 | 11.0 | 0.09 | 0.39 | 0.11 | 87 | 1014.8 |
| 20260905161000 | 57 | 218 | 3.0 | 14.0 | 0.09 | 0.39 | 0.10 | 86 | 1014.7 |
| 20260905160503 | 57 | 235 | 2.0 | 14.0 | 0.06 | 0.36 | 0.08 | 85 | 1014.9 |
| 20260905160003 | 58 | 212 | 5.0 | 21.0 | 0.06 | 0.35 | 0.07 | 84 | 1015.0 |
| 20260905155501 | 60 | 241 | 10.0 | 29.0 | 0.04 | 0.34 | 0.06 | 80 | 1015.0 |
| 20260905155002 | 62 | 228 | 15.0 | 29.0 | 0.00 | 0.30 | 0.02 | 76 | 1014.9 |
| 20260905154501 | 63 | 317 | 2.0 | 10.0 | 0.00 | 0.30 | 0.02 | 76 | 1014.5 |
| 20260905154001 | 63 | 75 | 3.0 | 9.0 | 0.00 | 0.30 | 0.02 | 75 | 1014.4 |
| 20260905153504 | 63 | 277 | 3.0 | 8.0 | 0.00 | 0.30 | 0.02 | 75 | 1014.3 |
| 20260905153102 | 63 | 292 | 3.0 | 12.0 | 0.00 | 0.30 | 0.02 | 76 | 1014.2 |
| 20260905152501 | 64 | 220 | 4.0 | 15.0 | 0.00 | 0.30 | 0.02 | 75 | 1014.3 |
| 20260905152003 | 64 | 225 | 5.0 | 14.0 | 0.01 | 0.30 | 0.02 | 76 | 1014.4 |
| 20260905151501 | 64 | 320 | 6.0 | 13.0 | 0.01 | 0.30 | 0.02 | 76 | 1014.3 |
| 20260905151003 | 64 | 239 | 4.0 | 13.0 | 0.01 | 0.30 | 0.02 | 76 | 1014.3 |
| 20260905150501 | 64 | 153 | 2.0 | 13.0 | 0.01 | 0.30 | 0.02 | 77 | 1014.3 |
| 20260905145559 | 65 | 281 | 4.0 | 11.0 | 0.01 | 0.30 | 0.02 | 77 | 1014.2 |
| 20260905145103 | 64 | 275 | 3.0 | 11.0 | 0.01 | 0.30 | 0.02 | 79 | 1014.3 |
| 20260905145004 | 64 | 229 | 3.0 | 15.0 | 0.01 | 0.30 | 0.02 | 79 | 1014.3 |
| 20260905144600 | 63 | 248 | 4.0 | 15.0 | 0.01 | 0.30 | 0.02 | 78 | 1014.2 |
| 20260905144100 | 63 | 275 | 5.0 | 17.0 | 0.01 | 0.30 | 0.02 | 79 | 1014.0 |
| 20260905143559 | 62 | 223 | 5.0 | 19.0 | 0.01 | 0.30 | 0.02 | 79 | 1014.0 |
| 20260905143101 | 62 | 225 | 9.0 | 19.0 | 0.01 | 0.30 | 0.02 | 79 | 1014.0 |
| 20260905142603 | 63 | 219 | 7.0 | 27.0 | 0.01 | 0.30 | 0.02 | 75 | 1013.8 |
| 20260905142100 | 65 | 217 | 14.0 | 27.0 | 0.00 | 0.28 | 0.01 | 70 | 1013.8 |
| 20260905141628 | 66 | 205 | 9.0 | 16.0 | 0.00 | 0.28 | 0.01 | 68 | 1013.9 |
| 20260905141501 | 66 | 213 | 7.0 | 22.0 | 0.00 | 0.28 | 0.01 | 68 | 1013.7 |
| 20260905141104 | 67 | 227 | 10.0 | 22.0 | 0.00 | 0.28 | 0.01 | 68 | 1013.7 |
| 20260905140603 | 67 | 188 | 10.0 | 23.0 | 0.00 | 0.28 | 0.01 | 68 | 1013.6 |
| 20260905140502 | 67 | 238 | 9.0 | 23.0 | 0.00 | 0.28 | 0.01 | 68 | 1013.6 |
| 20260905140100 | 67 | 219 | 14.0 | 22.0 | 0.00 | 0.28 | 0.01 | 67 | 1013.7 |
| 20260905140004 | 67 | 227 | 15.0 | 22.0 | 0.00 | 0.28 | 0.01 | 66 | 1013.5 |
| 20260905135502 | 67 | 240 | 10.0 | 27.0 | 0.00 | 0.28 | 0.01 | 67 | 1013.6 |
| 20260905135101 | 67 | 223 | 9.0 | 27.0 | 0.00 | 0.28 | 0.01 | 66 | 1013.6 |
| 20260905135003 | 67 | 219 | 11.0 | 27.0 | 0.00 | 0.28 | 0.01 | 65 | 1013.6 |
| 20260905134600 | 68 | 213 | 13.0 | 33.0 | 0.00 | 0.28 | 0.01 | 65 | 1013.6 |
| 20260905134501 | 68 | 235 | 11.0 | 33.0 | 0.00 | 0.28 | 0.01 | 66 | 1013.5 |
| 20260905134102 | 68 | 197 | 16.0 | 33.0 | 0.00 | 0.28 | 0.01 | 64 | 1013.7 |
| 20260905133602 | 69 | 223 | 11.0 | 24.0 | 0.00 | 0.28 | 0.01 | 65 | 1013.7 |
| 20260905133002 | 69 | 227 | 9.0 | 19.0 | 0.00 | 0.28 | 0.01 | 66 | 1013.5 |
| 20260905132501 | 68 | 211 | 10.0 | 19.0 | 0.00 | 0.28 | 0.01 | 67 | 1013.5 |
| 20260905132100 | 68 | 209 | 8.0 | 20.0 | 0.00 | 0.28 | 0.01 | 69 | 1013.4 |
| 20260905131629 | 67 | 195 | 7.0 | 25.0 | 0.00 | 0.28 | 0.01 | 70 | 1013.4 |
| 20260905131006 | 68 | 215 | 14.0 | 25.0 | 0.00 | 0.28 | 0.01 | 69 | 1013.3 |
| 20260905130503 | 68 | 209 | 7.0 | 15.0 | 0.00 | 0.28 | 0.01 | 69 | 1013.4 |
| 20260905130111 | 68 | 225 | 9.0 | 15.0 | 0.00 | 0.28 | 0.01 | 69 | 1013.4 |
| 20260905130002 | 67 | 232 | 8.0 | 18.0 | 0.00 | 0.28 | 0.01 | 69 | 1013.4 |
| 20260905125504 | 68 | 249 | 8.0 | 23.0 | 0.00 | 0.28 | 0.01 | 68 | 1013.4 |
| 20260905125003 | 67 | 217 | 10.0 | 23.0 | 0.00 | 0.28 | 0.01 | 68 | 1013.4 |
| 20260905124502 | 68 | 211 | 12.0 | 20.0 | 0.00 | 0.28 | 0.01 | 66 | 1013.6 |
| 20260905124100 | 69 | 225 | 12.0 | 21.0 | 0.00 | 0.28 | 0.01 | 65 | 1013.5 |
| 20260905123601 | 68 | 228 | 8.0 | 21.0 | 0.00 | 0.28 | 0.01 | 67 | 1013.6 |
| 20260905123503 | 68 | 227 | 9.0 | 22.0 | 0.00 | 0.28 | 0.01 | 66 | 1013.6 |
| 20260905123109 | 68 | 217 | 11.0 | 22.0 | 0.00 | 0.28 | 0.01 | 66 | 1013.6 |
| 20260905123004 | 68 | 207 | 11.0 | 22.0 | 0.00 | 0.28 | 0.01 | 65 | 1013.6 |
| 20260905122511 | 68 | 225 | 9.0 | 21.0 | 0.00 | 0.28 | 0.01 | 65 | 1013.8 |
| 20260905122001 | 68 | 227 | 10.0 | 21.0 | 0.00 | 0.28 | 0.01 | 64 | 1013.7 |
| 20260905121600 | 68 | 239 | 14.0 | 22.0 | 0.00 | 0.28 | 0.01 | 65 | 1013.9 |
| 20260905121102 | 67 | 232 | 9.0 | 21.0 | 0.00 | 0.28 | 0.01 | 66 | 1013.7 |
| 20260905121002 | 67 | 212 | 10.0 | 19.0 | 0.00 | 0.28 | 0.01 | 66 | 1013.6 |
| 20260905120504 | 67 | 223 | 5.0 | 15.0 | 0.00 | 0.28 | 0.01 | 67 | 1013.5 |
| 20260905120000 | 67 | 269 | 7.0 | 21.0 | 0.00 | 0.28 | 0.01 | 64 | 1013.5 |
| 20260905115559 | 68 | 248 | 8.0 | 21.0 | 0.00 | 0.28 | 0.01 | 62 | 1013.4 |
| 20260905115101 | 68 | 213 | 8.0 | 18.0 | 0.00 | 0.28 | 0.01 | 63 | 1013.4 |
| 20260905114600 | 68 | 276 | 7.0 | 18.0 | 0.00 | 0.28 | 0.01 | 62 | 1013.5 |
| 20260905114100 | 68 | 228 | 7.0 | 16.0 | 0.00 | 0.28 | 0.01 | 63 | 1013.5 |
| 20260905113600 | 68 | 221 | 6.0 | 18.0 | 0.00 | 0.28 | 0.01 | 63 | 1013.5 |
| 20260905113108 | 68 | 223 | 8.0 | 20.0 | 0.00 | 0.28 | 0.01 | 63 | 1013.6 |
| 20260905112600 | 68 | 217 | 9.0 | 20.0 | 0.00 | 0.28 | 0.01 | 64 | 1013.5 |
| 20260905112100 | 67 | 232 | 8.0 | 18.0 | 0.00 | 0.28 | 0.01 | 63 | 1013.7 |
| 20260905111604 | 68 | 220 | 7.0 | 21.0 | 0.00 | 0.28 | 0.01 | 64 | 1013.6 |
| 20260905111100 | 67 | 202 | 7.0 | 23.0 | 0.00 | 0.28 | 0.01 | 66 | 1013.5 |
| 20260905110600 | 66 | 238 | 13.0 | 23.0 | 0.00 | 0.28 | 0.01 | 66 | 1013.7 |
| 20260905110059 | 65 | 221 | 7.0 | 13.0 | 0.00 | 0.28 | 0.01 | 68 | 1013.7 |
| 20260905105600 | 65 | 239 | 4.0 | 14.0 | 0.00 | 0.28 | 0.01 | 69 | 1013.6 |
| 20260905105102 | 65 | 221 | 8.0 | 14.0 | 0.00 | 0.28 | 0.01 | 69 | 1013.7 |
| 20260905104600 | 65 | 204 | 3.0 | 16.0 | 0.00 | 0.28 | 0.01 | 70 | 1013.7 |
| 20260905104100 | 64 | 229 | 6.0 | 16.0 | 0.00 | 0.28 | 0.01 | 71 | 1013.7 |
| 20260905103601 | 63 | 256 | 8.0 | 14.0 | 0.00 | 0.28 | 0.01 | 72 | 1013.9 |
| 20260905103100 | 63 | 232 | 4.0 | 12.0 | 0.00 | 0.28 | 0.01 | 73 | 1013.7 |
| 20260905102559 | 63 | 144 | 6.0 | 12.0 | 0.00 | 0.28 | 0.01 | 72 | 1013.8 |
| 20260905102100 | 63 | 256 | 7.0 | 15.0 | 0.00 | 0.28 | 0.01 | 73 | 1013.8 |
| 20260905101626 | 63 | 218 | 4.0 | 15.0 | 0.00 | 0.28 | 0.01 | 73 | 1013.7 |
| 20260905101104 | 64 | 202 | 4.0 | 15.0 | 0.00 | 0.28 | 0.01 | 72 | 1013.7 |
| 20260905100600 | 64 | 250 | 6.0 | 16.0 | 0.00 | 0.28 | 0.01 | 69 | 1013.6 |
| 20260905100101 | 65 | 202 | 7.0 | 20.0 | 0.00 | 0.28 | 0.01 | 68 | 1013.5 |
| 20260905100002 | 65 | 200 | 7.0 | 21.0 | 0.00 | 0.28 | 0.01 | 67 | 1013.5 |
| 20260905095600 | 65 | 227 | 9.0 | 21.0 | 0.00 | 0.28 | 0.01 | 66 | 1013.6 |
| 20260905095500 | 65 | 233 | 10.0 | 21.0 | 0.00 | 0.28 | 0.01 | 66 | 1013.6 |
| 20260905095002 | 65 | 193 | 10.0 | 19.0 | 0.00 | 0.28 | 0.01 | 68 | 1013.6 |
| 20260905094502 | 65 | 235 | 10.0 | 22.0 | 0.00 | 0.28 | 0.01 | 68 | 1013.7 |
| 20260905094001 | 65 | 246 | 10.0 | 22.0 | 0.00 | 0.28 | 0.01 | 68 | 1013.6 |
| 20260905093602 | 65 | 231 | 7.0 | 16.0 | 0.00 | 0.28 | 0.01 | 67 | 1013.5 |
| 20260905093102 | 65 | 186 | 9.0 | 23.0 | 0.00 | 0.28 | 0.01 | 68 | 1013.4 |
| 20260905092603 | 64 | 168 | 11.0 | 23.0 | 0.00 | 0.28 | 0.01 | 68 | 1013.3 |
| 20260905092501 | 64 | 225 | 13.0 | 23.0 | 0.00 | 0.28 | 0.01 | 69 | 1013.4 |
| 20260905092101 | 64 | 220 | 5.0 | 18.0 | 0.00 | 0.28 | 0.01 | 70 | 1013.3 |
| 20260905091624 | 64 | 205 | 6.0 | 18.0 | 0.00 | 0.28 | 0.01 | 68 | 1013.2 |
| 20260905091501 | 65 | 191 | 8.0 | 19.0 | 0.00 | 0.28 | 0.01 | 68 | 1013.2 |
| 20260905091100 | 65 | 207 | 7.0 | 19.0 | 0.00 | 0.28 | 0.01 | 69 | 1013.2 |
| 20260905090501 | 65 | 209 | 9.0 | 20.0 | 0.00 | 0.28 | 0.01 | 70 | 1013.1 |
| 20260905090003 | 64 | 234 | 5.0 | 18.0 | 0.00 | 0.28 | 0.01 | 71 | 1013.2 |
| 20260905085503 | 64 | 227 | 9.0 | 18.0 | 0.00 | 0.28 | 0.01 | 70 | 1013.3 |
| 20260905085000 | 64 | 197 | 7.0 | 18.0 | 0.00 | 0.28 | 0.01 | 71 | 1013.0 |
| 20260905084617 | 64 | 218 | 6.0 | 18.0 | 0.00 | 0.28 | 0.01 | 69 | 1013.0 |
| 20260905084001 | 64 | 243 | 7.0 | 17.0 | 0.00 | 0.28 | 0.01 | 71 | 1013.0 |
| 20260905083501 | 64 | 213 | 8.0 | 21.0 | 0.00 | 0.28 | 0.01 | 71 | 1013.0 |
| 20260905083002 | 64 | 236 | 7.0 | 21.0 | 0.00 | 0.28 | 0.01 | 71 | 1012.9 |
| 20260905082600 | 64 | 223 | 8.0 | 21.0 | 0.00 | 0.28 | 0.01 | 71 | 1012.9 |
| 20260905082504 | 64 | 285 | 11.0 | 21.0 | 0.00 | 0.28 | 0.01 | 71 | 1012.9 |
| 20260905082101 | 63 | 219 | 8.0 | 20.0 | 0.00 | 0.28 | 0.01 | 73 | 1012.8 |
| 20260905081601 | 63 | 211 | 8.0 | 20.0 | 0.00 | 0.28 | 0.01 | 74 | 1012.7 |
| 20260905081000 | 63 | 221 | 8.0 | 20.0 | 0.00 | 0.28 | 0.01 | 74 | 1012.8 |
| 20260905080501 | 63 | 223 | 10.0 | 20.0 | 0.00 | 0.28 | 0.01 | 74 | 1012.7 |
| 20260905080100 | 63 | 220 | 7.0 | 20.0 | 0.00 | 0.28 | 0.01 | 74 | 1012.7 |
| 20260905080003 | 63 | 271 | 6.0 | 19.0 | 0.00 | 0.28 | 0.01 | 74 | 1012.6 |
| 20260905075502 | 63 | 218 | 4.0 | 16.0 | 0.00 | 0.28 | 0.01 | 76 | 1012.6 |
| 20260905075101 | 63 | 234 | 5.0 | 20.0 | 0.00 | 0.28 | 0.01 | 75 | 1012.5 |
| 20260905074601 | 63 | 260 | 8.0 | 20.0 | 0.00 | 0.28 | 0.01 | 75 | 1012.4 |
| 20260905074501 | 63 | 278 | 9.0 | 20.0 | 0.00 | 0.28 | 0.01 | 75 | 1012.5 |
| 20260905074002 | 63 | 200 | 7.0 | 24.0 | 0.00 | 0.28 | 0.01 | 76 | 1012.2 |
| 20260905073601 | 62 | 269 | 10.0 | 24.0 | 0.00 | 0.28 | 0.01 | 75 | 1012.3 |
| 20260905073003 | 63 | 220 | 10.0 | 22.0 | 0.00 | 0.28 | 0.01 | 76 | 1012.1 |
| 20260905072501 | 63 | 218 | 6.0 | 17.0 | 0.00 | 0.28 | 0.01 | 78 | 1012.2 |
| 20260905072001 | 62 | 312 | 8.0 | 17.0 | 0.00 | 0.28 | 0.01 | 77 | 1012.1 |
| 20260905071603 | 62 | 215 | 8.0 | 22.0 | 0.00 | 0.28 | 0.01 | 78 | 1012.0 |
| 20260905071103 | 62 | 235 | 10.0 | 22.0 | 0.00 | 0.28 | 0.01 | 78 | 1012.1 |
| 20260905070601 | 62 | 205 | 6.0 | 18.0 | 0.00 | 0.28 | 0.01 | 79 | 1011.9 |
| 20260905070113 | 62 | 273 | 6.0 | 17.0 | 0.00 | 0.28 | 0.01 | 79 | 1011.9 |
| 20260905065559 | 62 | 215 | 6.0 | 18.0 | 0.00 | 0.28 | 0.01 | 80 | 1011.8 |
| 20260905065100 | 61 | 223 | 7.0 | 17.0 | 0.00 | 0.28 | 0.01 | 81 | 1011.7 |
| 20260905064601 | 61 | 242 | 9.0 | 17.0 | 0.00 | 0.28 | 0.01 | 81 | 1011.6 |
| 20260905064100 | 61 | 225 | 7.0 | 19.0 | 0.00 | 0.28 | 0.01 | 82 | 1011.6 |
| 20260905063602 | 61 | 248 | 9.0 | 19.0 | 0.00 | 0.28 | 0.01 | 82 | 1011.5 |
| 20260905063101 | 61 | 220 | 9.0 | 18.0 | 0.00 | 0.28 | 0.01 | 82 | 1011.4 |
| 20260905062559 | 61 | 228 | 9.0 | 16.0 | 0.00 | 0.28 | 0.01 | 82 | 1011.3 |
| 20260905062059 | 60 | 213 | 5.0 | 16.0 | 0.00 | 0.28 | 0.01 | 83 | 1011.2 |
| 20260905061617 | 60 | 248 | 7.0 | 21.0 | 0.00 | 0.28 | 0.01 | 83 | 1011.2 |
| 20260905061059 | 60 | 221 | 11.0 | 21.0 | 0.00 | 0.28 | 0.01 | 84 | 1011.3 |
| 20260905060601 | 60 | 207 | 6.0 | 17.0 | 0.00 | 0.28 | 0.01 | 84 | 1011.2 |
| 20260905060100 | 60 | 223 | 9.0 | 17.0 | 0.00 | 0.28 | 0.01 | 85 | 1011.2 |
| 20260905055600 | 60 | 246 | 6.0 | 16.0 | 0.00 | 0.28 | 0.01 | 85 | 1011.2 |
| 20260905055059 | 59 | 246 | 6.0 | 23.0 | 0.00 | 0.28 | 0.01 | 86 | 1011.2 |
| 20260905054603 | 59 | 221 | 10.0 | 23.0 | 0.00 | 0.28 | 0.01 | 86 | 1011.1 |
| 20260905054100 | 59 | 230 | 7.0 | 17.0 | 0.00 | 0.28 | 0.01 | 86 | 1011.1 |
| 20260905053600 | 59 | 204 | 8.0 | 18.0 | 0.00 | 0.28 | 0.01 | 86 | 1011.1 |
| 20260905053112 | 59 | 223 | 11.0 | 18.0 | 0.00 | 0.28 | 0.01 | 86 | 1011.0 |
| 20260905052602 | 58 | 217 | 6.0 | 18.0 | 0.00 | 0.28 | 0.01 | 86 | 1011.0 |
| 20260905052100 | 58 | 238 | 8.0 | 23.0 | 0.00 | 0.28 | 0.01 | 86 | 1010.9 |
| 20260905051559 | 58 | 190 | 8.0 | 23.0 | 0.00 | 0.28 | 0.01 | 87 | 1010.9 |
| 20260905051100 | 58 | 176 | 5.0 | 16.0 | 0.00 | 0.28 | 0.01 | 87 | 1010.8 |
| 20260905050559 | 58 | 219 | 8.0 | 15.0 | 0.00 | 0.28 | 0.01 | 87 | 1010.7 |
| 20260905050100 | 58 | 213 | 7.0 | 16.0 | 0.00 | 0.28 | 0.01 | 87 | 1010.7 |
| 20260905045559 | 57 | 258 | 6.0 | 16.0 | 0.00 | 0.28 | 0.01 | 87 | 1010.7 |
| 20260905045059 | 57 | 225 | 6.0 | 14.0 | 0.00 | 0.28 | 0.01 | 87 | 1010.6 |
| 20260905044600 | 57 | 234 | 5.0 | 19.0 | 0.00 | 0.28 | 0.01 | 87 | 1010.5 |
| 20260905044058 | 57 | 167 | 5.0 | 19.0 | 0.00 | 0.28 | 0.01 | 87 | 1010.4 |
| 20260905043600 | 57 | 244 | 7.0 | 16.0 | 0.00 | 0.28 | 0.01 | 87 | 1010.4 |
| 20260905043100 | 57 | 269 | 5.0 | 16.0 | 0.00 | 0.28 | 0.01 | 87 | 1010.3 |
| 20260905042603 | 57 | 220 | 7.0 | 16.0 | 0.00 | 0.28 | 0.01 | 86 | 1010.4 |
| 20260905042059 | 57 | 191 | 6.0 | 15.0 | 0.00 | 0.28 | 0.01 | 87 | 1010.3 |
| 20260905041600 | 57 | 218 | 5.0 | 16.0 | 0.00 | 0.28 | 0.01 | 86 | 1010.3 |
| 20260905041059 | 57 | 277 | 7.0 | 16.0 | 0.00 | 0.28 | 0.01 | 86 | 1010.1 |
| 20260905040559 | 57 | 230 | 5.0 | 15.0 | 0.00 | 0.28 | 0.01 | 86 | 1010.0 |
| 20260905040100 | 57 | 209 | 5.0 | 14.0 | 0.00 | 0.28 | 0.01 | 86 | 1010.1 |
| 20260905040002 | 57 | 211 | 7.0 | 14.0 | 0.00 | 0.28 | 0.01 | 86 | 1010.0 |
| 20260905035501 | 57 | 237 | 7.0 | 12.0 | 0.00 | 0.28 | 0.01 | 86 | 1009.9 |
| 20260905035002 | 58 | 202 | 4.0 | 12.0 | 0.00 | 0.28 | 0.01 | 86 | 1009.9 |
| 20260905034601 | 58 | 221 | 5.0 | 12.0 | 0.00 | 0.28 | 0.01 | 86 | 1009.8 |
| 20260905034104 | 58 | 197 | 5.0 | 12.0 | 0.00 | 0.28 | 0.01 | 86 | 1009.8 |
| 20260905033601 | 58 | 294 | 7.0 | 12.0 | 0.00 | 0.28 | 0.01 | 86 | 1009.8 |
| 20260905033001 | 58 | 241 | 6.0 | 17.0 | 0.00 | 0.28 | 0.01 | 86 | 1009.7 |
| 20260905032601 | 58 | 215 | 4.0 | 17.0 | 0.00 | 0.28 | 0.01 | 86 | 1009.7 |
| 20260905032500 | 58 | 228 | 4.0 | 17.0 | 0.00 | 0.28 | 0.01 | 86 | 1009.7 |
| 20260905032103 | 58 | 234 | 4.0 | 13.0 | 0.00 | 0.28 | 0.01 | 86 | 1009.7 |
| 20260905031602 | 58 | 207 | 6.0 | 13.0 | 0.00 | 0.28 | 0.01 | 86 | 1009.7 |
| 20260905031100 | 58 | 228 | 8.0 | 14.0 | 0.00 | 0.28 | 0.01 | 86 | 1009.8 |
| 20260905030600 | 58 | 220 | 5.0 | 15.0 | 0.00 | 0.28 | 0.01 | 86 | 1009.7 |
| 20260905030104 | 58 | 215 | 6.0 | 12.0 | 0.00 | 0.28 | 0.01 | 86 | 1009.7 |
| 20260905025557 | 58 | 205 | 6.0 | 14.0 | 0.00 | 0.28 | 0.01 | 86 | 1009.7 |
| 20260905025058 | 58 | 219 | 7.0 | 14.0 | 0.00 | 0.28 | 0.01 | 86 | 1009.6 |
| 20260905024630 | 58 | 152 | 4.0 | 15.0 | 0.00 | 0.28 | 0.01 | 86 | 1009.5 |
| 20260905024059 | 58 | 228 | 6.0 | 14.0 | 0.00 | 0.28 | 0.01 | 86 | 1009.5 |
| 20260905023558 | 58 | 221 | 6.0 | 17.0 | 0.00 | 0.28 | 0.01 | 86 | 1009.5 |
| 20260905023100 | 58 | 220 | 9.0 | 18.0 | 0.00 | 0.28 | 0.01 | 86 | 1009.4 |
| 20260905022558 | 59 | 209 | 4.0 | 11.0 | 0.00 | 0.28 | 0.01 | 86 | 1009.3 |
| 20260905022057 | 59 | 227 | 5.0 | 12.0 | 0.00 | 0.28 | 0.01 | 85 | 1009.2 |
| 20260905021557 | 59 | 219 | 7.0 | 11.0 | 0.00 | 0.28 | 0.01 | 85 | 1009.2 |
| 20260905021057 | 59 | 204 | 4.0 | 10.0 | 0.00 | 0.28 | 0.01 | 85 | 1009.0 |
| 20260905020557 | 59 | 242 | 4.0 | 15.0 | 0.00 | 0.28 | 0.01 | 84 | 1008.9 |
| 20260905020058 | 59 | 182 | 7.0 | 15.0 | 0.00 | 0.28 | 0.01 | 84 | 1008.9 |
| 20260905015556 | 59 | 255 | 5.0 | 15.0 | 0.00 | 0.28 | 0.01 | 84 | 1008.8 |
| 20260905015059 | 59 | 225 | 6.0 | 15.0 | 0.00 | 0.28 | 0.01 | 84 | 1008.8 |
| 20260905014558 | 59 | 239 | 4.0 | 10.0 | 0.00 | 0.28 | 0.01 | 84 | 1008.7 |
| 20260905014059 | 59 | 273 | 4.0 | 10.0 | 0.00 | 0.28 | 0.01 | 84 | 1008.6 |
| 20260905013558 | 59 | 299 | 3.0 | 12.0 | 0.00 | 0.28 | 0.01 | 84 | 1008.7 |
| 20260905013056 | 59 | 229 | 4.0 | 12.0 | 0.00 | 0.28 | 0.01 | 84 | 1008.7 |
| 20260905012556 | 59 | 184 | 4.0 | 12.0 | 0.00 | 0.28 | 0.01 | 84 | 1008.7 |
| 20260905012058 | 59 | 243 | 6.0 | 18.0 | 0.00 | 0.28 | 0.01 | 84 | 1008.7 |
| 20260905011601 | 59 | 211 | 4.0 | 17.0 | 0.00 | 0.28 | 0.01 | 85 | 1008.6 |
| 20260905011056 | 60 | 204 | 4.0 | 17.0 | 0.00 | 0.28 | 0.01 | 85 | 1008.6 |
| 20260905010555 | 60 | 217 | 5.0 | 21.0 | 0.00 | 0.28 | 0.01 | 86 | 1008.4 |
| 20260905010101 | 60 | 230 | 5.0 | 21.0 | 0.00 | 0.28 | 0.01 | 86 | 1008.3 |
| 20260905005556 | 60 | 188 | 6.0 | 19.0 | 0.00 | 0.28 | 0.01 | 86 | 1008.4 |
| 20260905005058 | 60 | 278 | 6.0 | 19.0 | 0.00 | 0.28 | 0.01 | 86 | 1008.1 |
| 20260905004601 | 60 | 223 | 6.0 | 11.0 | 0.00 | 0.28 | 0.01 | 86 | 1007.9 |
| 20260905004059 | 60 | 240 | 3.0 | 12.0 | 0.00 | 0.28 | 0.01 | 86 | 1007.9 |
| 20260905003556 | 60 | 188 | 4.0 | 12.0 | 0.00 | 0.28 | 0.01 | 87 | 1007.8 |
| 20260905003057 | 60 | 303 | 5.0 | 16.0 | 0.00 | 0.28 | 0.01 | 87 | 1007.9 |
| 20260905002556 | 60 | 259 | 6.0 | 16.0 | 0.00 | 0.28 | 0.01 | 87 | 1008.0 |
| 20260905002057 | 60 | 168 | 3.0 | 16.0 | 0.00 | 0.28 | 0.01 | 88 | 1008.0 |
| 20260905001556 | 60 | 173 | 5.0 | 11.0 | 0.00 | 0.28 | 0.01 | 88 | 1007.9 |
| 20260905001055 | 60 | 205 | 6.0 | 13.0 | 0.00 | 0.28 | 0.01 | 88 | 1007.8 |
| 20260905000557 | 60 | 248 | 3.0 | 13.0 | 0.00 | 0.28 | 0.01 | 88 | 1007.6 |
| 20260905000056 | 60 | 230 | 6.0 | 15.0 | 0.00 | 0.28 | 0.01 | 88 | 1007.5 |
| 20260904235557 | 60 | 216 | 7.0 | 15.0 | 0.00 | 0.28 | 0.01 | 88 | 1007.3 |
| 20260904235058 | 60 | 233 | 3.0 | 14.0 | 0.00 | 0.28 | 0.01 | 88 | 1007.1 |
| 20260904234557 | 60 | 202 | 5.0 | 14.0 | 0.00 | 0.28 | 0.01 | 88 | 1007.0 |
| 20260904234056 | 60 | 142 | 4.0 | 11.0 | 0.00 | 0.28 | 0.01 | 88 | 1006.9 |
| 20260904233558 | 60 | 229 | 5.0 | 11.0 | 0.00 | 0.28 | 0.01 | 88 | 1007.0 |
| 20260904233104 | 60 | 226 | 3.0 | 10.0 | 0.00 | 0.28 | 0.01 | 89 | 1007.1 |
| 20260904232558 | 60 | 168 | 5.0 | 10.0 | 0.00 | 0.28 | 0.01 | 89 | 1007.1 |
| 20260904232057 | 61 | 236 | 3.0 | 10.0 | 0.00 | 0.28 | 0.01 | 88 | 1006.8 |
| 20260904231558 | 61 | 214 | 3.0 | 10.0 | 0.00 | 0.28 | 0.01 | 88 | 1006.8 |
| 20260904231101 | 61 | 248 | 2.0 | 12.0 | 0.00 | 0.28 | 0.01 | 88 | 1006.8 |
| 20260904230558 | 61 | 237 | 3.0 | 15.0 | 0.00 | 0.28 | 0.01 | 88 | 1006.6 |
| 20260904230058 | 61 | 213 | 5.0 | 14.0 | 0.01 | 0.28 | 0.01 | 88 | 1006.6 |
| 20260904225557 | 61 | 215 | 3.0 | 14.0 | 0.02 | 0.28 | 0.01 | 88 | 1006.7 |
| 20260904225057 | 62 | 225 | 7.0 | 14.0 | 0.02 | 0.28 | 0.01 | 88 | 1006.6 |
| 20260904224555 | 62 | 152 | 5.0 | 12.0 | 0.02 | 0.28 | 0.01 | 88 | 1006.5 |
| 20260904224057 | 62 | 223 | 4.0 | 12.0 | 0.02 | 0.28 | 0.01 | 88 | 1006.4 |
| 20260904223557 | 62 | 211 | 3.0 | 14.0 | 0.14 | 0.28 | 0.01 | 88 | 1006.3 |
| 20260904223100 | 62 | 250 | 5.0 | 14.0 | 0.15 | 0.28 | 0.01 | 88 | 1006.3 |
| 20260904222557 | 62 | 216 | 4.0 | 16.0 | 0.15 | 0.28 | 0.01 | 88 | 1006.2 |
| 20260904222057 | 62 | 221 | 5.0 | 19.0 | 0.15 | 0.28 | 0.01 | 88 | 1006.0 |
| 20260904221604 | 62 | 140 | 5.0 | 9.0 | 0.15 | 0.28 | 0.01 | 88 | 1006.0 |
| 20260904221057 | 62 | 219 | 4.0 | 11.0 | 0.15 | 0.28 | 0.01 | 88 | 1006.0 |
| 20260904220556 | 62 | 202 | 6.0 | 12.0 | 0.14 | 0.28 | 0.00 | 88 | 1005.9 |
| 20260904215558 | 62 | 182 | 3.0 | 12.0 | 0.13 | 0.28 | 0.28 | 88 | 1005.6 |
| 20260904215058 | 62 | 205 | 3.0 | 12.0 | 0.13 | 0.28 | 0.28 | 88 | 1005.6 |
| 20260904214607 | 62 | 257 | 2.0 | 7.0 | 0.13 | 0.28 | 0.27 | 88 | 1005.7 |
| 20260904214058 | 62 | 202 | 5.0 | 7.0 | 0.13 | 0.28 | 0.27 | 88 | 1005.7 |
| 20260904213559 | 62 | 336 | 2.0 | 6.0 | 0.01 | 0.17 | 0.15 | 88 | 1005.7 |
| 20260904213058 | 62 | 230 | 2.0 | 7.0 | 0.00 | 0.16 | 0.14 | 88 | 1005.3 |
| 20260904212558 | 62 | 206 | 3.0 | 7.0 | 0.00 | 0.16 | 0.14 | 88 | 1005.2 |
| 20260904212102 | 62 | 210 | 3.0 | 5.0 | 0.00 | 0.16 | 0.14 | 88 | 1005.1 |
| 20260904211605 | 62 | 174 | 2.0 | 4.0 | 0.00 | 0.16 | 0.14 | 88 | 1005.2 |
| 20260904211058 | 62 | 191 | 1.0 | 7.0 | 0.00 | 0.16 | 0.14 | 88 | 1005.2 |
| 20260904210603 | 62 | 211 | 3.0 | 7.0 | 0.00 | 0.16 | 0.14 | 88 | 1005.2 |
| 20260904210059 | 62 | 198 | 2.0 | 5.0 | 0.00 | 0.16 | 0.14 | 88 | 1005.2 |
| 20260904205558 | 62 | 209 | 1.0 | 6.0 | 0.00 | 0.16 | 0.14 | 88 | 1005.3 |
| 20260904205057 | 63 | 215 | 2.0 | 6.0 | 0.00 | 0.16 | 0.14 | 88 | 1005.6 |
| 20260904204557 | 63 | 211 | 3.0 | 7.0 | 0.00 | 0.16 | 0.14 | 88 | 1005.6 |
| 20260904204101 | 63 | 209 | 3.0 | 7.0 | 0.00 | 0.16 | 0.14 | 88 | 1005.6 |
| 20260904203558 | 63 | 223 | 3.0 | 7.0 | 0.00 | 0.16 | 0.14 | 88 | 1005.5 |